[[{"header":{"parameterUnit":"m.s-1","parameterCategory":1,"la1":30.2991,"la2":30.254,"lo1":-89.0895,"lo2":-89.0444,"dy":0.0017,"dx":0.0017,"nx":28,"ny":28,"refTime":"2024-02-24T03:00:00:Z","depth":0,"parameterNumber":2,"parameterNumberName":"U-component_of_WINDS"},"data":[0,0,0,0,0,0,0,0,0,0,0,0,0,0,0,0,0,0,0,0,0,0,0,0,0,0,0,0,0,0,0,0,0,0,0,0,0,0,0,0,0,0,0,0,0,0,0,0,0,0,0,0,0,0,0,0,0,0,0.0585,0.0585,0,0.0557,0.0557,0.0556,0.0557,0.0557,0.0558,0.0558,0.0528,0.0527,0.0526,0,0,0,0,0,0,0,0,0,0,0,0,0,0.0639,0.0638,0.0585,0.0585,0.0585,0.0557,0.0557,0.0556,0.0557,0.0557,0.0558,0.0558,0.0528,0.0527,0.0526,0,0,0,0,0,0,0,0,0,0,0,0,0,0.0614,0.0638,0.0586,0.0582,0.0581,0.0557,0.0557,0.0556,0.0557,0.0557,0.0558,0.0558,0.0529,0.0527,0.0525,0.0503,0,0,0.052,0.0519,0,0,0,0,0,0,0,0,0.0615,0.0612,0.0583,0.0582,0.0581,0.0561,0.0565,0.0538,0.0557,0.0566,0.0558,0.0559,0.0539,0.0536,0.0529,0.0502,0.0501,0.052,0.0519,0.0518,0.0518,0,0,0,0,0,0,0,0.0617,0.0613,0.0574,0.0582,0.0581,0.0581,0.0578,0.056,0.0549,0.0565,0.0565,0.0562,0.0538,0.0531,0.0529,0.05,0.052,0.0519,0.0517,0.0517,0.0452,0.0452,0,0,0,0,0,0,0.0619,0.0614,0.0575,0.0573,0.06,0.058,0.0576,0.0567,0.055,0.0547,0.0561,0.0562,0.0534,0.0531,0.0528,0.05,0.0518,0.0517,0.0516,0.0453,0.0452,0.0451,0,0,0,0,0,0,0.0621,0.0616,0.0576,0.0594,0.0589,0.0578,0.0568,0.0566,0.0559,0.0547,0.0545,0.0556,0.0534,0.053,0.0509,0.0499,0.0516,0.0514,0.0454,0.0453,0.0452,0.0445,0,0,0,0,0,0,0.0622,0.0616,0.0608,0.0594,0.0588,0.0559,0.0567,0.0565,0.0556,0.0557,0.0541,0.0539,0.0534,0.0512,0.0508,0.0497,0.0513,0.0455,0.0453,0.0452,0.0446,0.0444,0.0442,0,0,0,0,0,0.0624,0.0607,0.0608,0.0603,0.0577,0.0558,0.0555,0.055,0.0555,0.0547,0.0539,0.054,0.0501,0.051,0.0505,0.0494,0.0455,0.0454,0.0452,0.0447,0.0444,0.0442,0,0,0,0,0,0,0.062,0.0605,0.0606,0.0584,0.0572,0.0558,0.0547,0.0547,0.0533,0.0534,0.0529,0.0525,0.0504,0.0497,0.0507,0.0471,0.0479,0.0476,0.0476,0.0474,0.0472,0.0473,0.0511,0,0,0,0,0,0.0617,0.0603,0.059,0.0572,0.0566,0.0558,0.0549,0.0546,0.0534,0.0529,0.052,0.0508,0.0493,0.0483,0.0468,0.0445,0.0441,0.0435,0.0433,0.0431,0.0429,0.0415,0.0412,0.0447,0.0447,0.0447,0,0,0.061,0.06,0.0591,0.0571,0.0562,0.0547,0.0554,0.0538,0.0526,0.0527,0.0506,0.0499,0.0485,0.0463,0.0452,0.0456,0.0419,0.0429,0.0428,0.0427,0.0414,0.041,0.0407,0.0446,0.0446,0.0446,0,0,0.0589,0.058,0.0564,0.0554,0.0541,0.0535,0.0531,0.0517,0.0512,0.0492,0.0492,0.0478,0.0453,0.0443,0.0434,0.041,0.041,0.0405,0.0394,0.0381,0.0378,0.0376,0.0366,0.0363,0.0403,0.0403,0.0403,0,0.0581,0.0559,0.0555,0.0539,0.053,0.053,0.0513,0.0504,0.0486,0.048,0.0484,0.0452,0.0443,0.0418,0.0412,0.0405,0.04,0.0406,0.0379,0.0377,0.0374,0.0365,0.0362,0.0402,0.0402,0.0402,0.0402,0,0.0551,0.0535,0.0524,0.0507,0.0496,0.048,0.0473,0.0463,0.0461,0.0455,0.0434,0.0423,0.0406,0.04,0.0398,0.0375,0.0377,0.038,0.0388,0.0371,0.0362,0.0358,0.0402,0.0402,0.0402,0.0402,0,0,0.0526,0.0507,0.0502,0.0495,0.0479,0.0467,0.0451,0.0435,0.0426,0.0414,0.0399,0.0378,0.0381,0.0371,0.0368,0.0357,0.0337,0.0361,0.0361,0.0357,0.031,0.0307,0.0303,0.0338,0.0337,0.0336,0.0311,0,0.0503,0.0474,0.0469,0.0443,0.0429,0.0429,0.0414,0.0403,0.0397,0.0384,0.0377,0.0362,0.0367,0.0361,0.035,0.0342,0.0328,0.0344,0.0323,0.0323,0.0326,0.0299,0.0296,0.0272,0.0308,0.0307,0.0307,0,0.0472,0.0459,0.0432,0.0418,0.0412,0.0399,0.0384,0.0371,0.0358,0.0355,0.0344,0.0342,0.0325,0.0334,0.0309,0.032,0.0312,0.0307,0.0306,0.0303,0.0313,0.0295,0.0265,0.0261,0.0302,0.0302,0.0302,0,0.0455,0.0431,0.0412,0.0405,0.0389,0.038,0.0373,0.0361,0.0351,0.0338,0.0332,0.0316,0.0308,0.0296,0.029,0.0297,0.0266,0.0274,0.0261,0.0261,0.0254,0.0254,0.0222,0.025,0.025,0.025,0.025,0,0.043,0.0413,0.0404,0.0392,0.0373,0.0368,0.035,0.0343,0.0332,0.0318,0.0317,0.0304,0.0298,0.0284,0.0279,0.0259,0.0255,0.0252,0.025,0.0251,0.0251,0.0245,0.0246,0.0249,0.0249,0.025,0.025,0,0.0408,0.0402,0.038,0.0367,0.0363,0.035,0.0338,0.0326,0.032,0.0303,0.0299,0.0289,0.0273,0.0266,0.0246,0.0242,0.0219,0.022,0.0223,0.0223,0.021,0.0211,0.0171,0.0165,0.0198,0.0198,0.0198,0,0.0391,0.0378,0.0364,0.0355,0.0347,0.0333,0.0323,0.0318,0.0308,0.0293,0.0282,0.0266,0.0252,0.0226,0.0217,0.0201,0.0201,0.0188,0.0198,0.02,0.02,0.02,0.0199,0.0186,0.0185,0.0185,0.0185,0,0.0362,0.036,0.0346,0.0331,0.032,0.0308,0.0296,0.0289,0.0282,0.0271,0.0254,0.0243,0.0223,0.0206,0.019,0.0182,0.0182,0.0182,0.0178,0.0178,0.0181,0.0178,0.0217,0.0183,0.0183,0.0183,0.0183,0.0183,0.0342,0.033,0.0318,0.0303,0.0294,0.0283,0.0271,0.0264,0.025,0.0233,0.0231,0.0212,0.02,0.0178,0.017,0.0155,0.0159,0.0153,0.0152,0.015,0.0149,0.0184,0.0153,0.0153,0.0153,0.0153,0.0153,0,0.0312,0.0305,0.0291,0.0275,0.0262,0.0264,0.0251,0.0241,0.0225,0.0214,0.02,0.0181,0.0165,0.0155,0.0139,0.0129,0.0128,0.0125,0.0125,0.0123,0.0147,0.0152,0.0125,0.0125,0.0125,0.0125,0.0125,0.0125,0.0296,0.0276,0.0272,0.0247,0.024,0.0222,0.0214,0.0204,0.0195,0.0173,0.016,0.0154,0.0143,0.0126,0.0111,0.0109,0.0103,0.0099,0.0096,0.0119,0.0121,0.0124,0.0128,0.0097,0.0097,0.0073,0.0073,0.0073]},{"header":{"parameterUnit":"m.s-1","parameterCategory":1,"la1":30.2991,"la2":30.254,"lo1":-89.0895,"lo2":-89.0444,"dy":0.0017,"dx":0.0017,"nx":28,"ny":28,"refTime":"2024-02-24T03:00:00:Z","depth":0,"parameterNumber":3,"parameterNumberName":"V-component_of_WINDS"},"data":[0,0,0,0,0,0,0,0,0,0,0,0,0,0,0,0,0,0,0,0,0,0,0,0,0,0,0,0,0,0,0,0,0,0,0,0,0,0,0,0,0,0,0,0,0,0,0,0,0,0,0,0,0,0,0,0,0,0,-1.776,-1.7761,0,-1.7827,-1.7828,-1.7829,-1.7838,-1.7837,-1.7837,-1.7836,-1.7903,-1.7905,-1.7907,0,0,0,0,0,0,0,0,0,0,0,0,0,-1.7637,-1.7639,-1.776,-1.7761,-1.7762,-1.7827,-1.7828,-1.7829,-1.7838,-1.7837,-1.7837,-1.7836,-1.7902,-1.7905,-1.7908,0,0,0,0,0,0,0,0,0,0,0,0,0,-1.7696,-1.764,-1.776,-1.7774,-1.7776,-1.7827,-1.7828,-1.7829,-1.7838,-1.7837,-1.7836,-1.7835,-1.7901,-1.7905,-1.7908,-1.7949,0,0,-1.7919,-1.792,0,0,0,0,0,0,0,0,-1.7693,-1.77,-1.7771,-1.7773,-1.7775,-1.7823,-1.7809,-1.7869,-1.7838,-1.7815,-1.7836,-1.7835,-1.7877,-1.7882,-1.7897,-1.7952,-1.7955,-1.7919,-1.7921,-1.7923,-1.7924,0,0,0,0,0,0,0,-1.7689,-1.7698,-1.7787,-1.7772,-1.7775,-1.7776,-1.7784,-1.7821,-1.785,-1.7817,-1.7817,-1.7825,-1.7878,-1.7894,-1.7899,-1.7956,-1.7919,-1.7922,-1.7924,-1.7926,-1.8048,-1.8049,0,0,0,0,0,0,-1.7682,-1.7694,-1.7784,-1.7789,-1.7731,-1.7779,-1.7788,-1.7809,-1.785,-1.7855,-1.7826,-1.7826,-1.7888,-1.7895,-1.7901,-1.7952,-1.7923,-1.7926,-1.7928,-1.8047,-1.8048,-1.8049,0,0,0,0,0,0,-1.7679,-1.769,-1.7782,-1.7742,-1.7753,-1.7783,-1.7806,-1.7811,-1.7826,-1.7857,-1.7862,-1.7837,-1.7888,-1.7896,-1.7937,-1.7954,-1.7928,-1.7931,-1.8045,-1.8047,-1.8049,-1.8053,0,0,0,0,0,0,-1.7676,-1.7689,-1.7705,-1.7742,-1.7756,-1.7817,-1.7807,-1.7813,-1.7833,-1.7833,-1.7869,-1.7873,-1.7887,-1.7932,-1.7941,-1.7959,-1.7934,-1.8044,-1.8046,-1.8048,-1.8052,-1.8055,-1.8058,0,0,0,0,0,-1.7671,-1.7703,-1.7706,-1.7717,-1.7777,-1.7818,-1.7826,-1.7842,-1.7834,-1.785,-1.787,-1.7872,-1.7951,-1.7936,-1.7946,-1.7965,-1.8043,-1.8046,-1.8048,-1.805,-1.8054,-1.8058,0,0,0,0,0,0,-1.7667,-1.7708,-1.7712,-1.7757,-1.7784,-1.782,-1.7841,-1.7846,-1.7875,-1.7874,-1.7892,-1.79,-1.794,-1.7957,-1.7939,-1.8007,-1.7996,-1.8001,-1.7995,-1.7999,-1.8001,-1.7996,-1.7937,0,0,0,0,0,-1.7671,-1.7702,-1.7737,-1.7773,-1.7786,-1.7811,-1.783,-1.784,-1.7869,-1.788,-1.7903,-1.793,-1.7961,-1.7981,-1.8011,-1.8054,-1.8062,-1.8073,-1.8075,-1.8078,-1.8081,-1.8106,-1.8111,-1.8058,-1.8058,-1.8058,0,0,-1.768,-1.7707,-1.7725,-1.7772,-1.7795,-1.7826,-1.7821,-1.7854,-1.7877,-1.7885,-1.7925,-1.7943,-1.7974,-1.8017,-1.8037,-1.8032,-1.8098,-1.8081,-1.8083,-1.8085,-1.8109,-1.8114,-1.8118,-1.8059,-1.8059,-1.8059,0,0,-1.7712,-1.7736,-1.7769,-1.7791,-1.7826,-1.7842,-1.785,-1.7885,-1.7898,-1.7939,-1.7945,-1.7973,-1.8026,-1.8048,-1.8066,-1.8108,-1.8111,-1.8117,-1.8132,-1.8156,-1.816,-1.8164,-1.8178,-1.8183,-1.812,-1.812,-1.812,0,-1.7719,-1.7767,-1.7785,-1.7818,-1.7839,-1.7848,-1.7881,-1.7902,-1.7944,-1.7958,-1.7952,-1.8019,-1.8041,-1.8089,-1.8099,-1.8114,-1.8123,-1.8113,-1.8158,-1.8162,-1.8166,-1.818,-1.8185,-1.8121,-1.8121,-1.8121,-1.8121,0,-1.7773,-1.7807,-1.7829,-1.787,-1.7893,-1.7926,-1.7949,-1.797,-1.7978,-1.7995,-1.8037,-1.8063,-1.8099,-1.8111,-1.8119,-1.8161,-1.8157,-1.8154,-1.8144,-1.8171,-1.8185,-1.819,-1.8122,-1.8122,-1.8121,-1.8121,0,0,-1.7804,-1.7856,-1.7863,-1.7882,-1.7921,-1.7947,-1.798,-1.8016,-1.8034,-1.8063,-1.8091,-1.8136,-1.8134,-1.8155,-1.8165,-1.8186,-1.8217,-1.8181,-1.8182,-1.8187,-1.8264,-1.8266,-1.8272,-1.822,-1.8221,-1.8222,-1.8262,0,-1.7841,-1.7901,-1.7918,-1.7969,-1.8,-1.801,-1.8039,-1.8066,-1.8082,-1.811,-1.8129,-1.816,-1.8156,-1.8168,-1.8189,-1.8209,-1.8233,-1.8206,-1.8245,-1.8247,-1.8237,-1.8279,-1.828,-1.8317,-1.8267,-1.8268,-1.8269,0,-1.7891,-1.7922,-1.7976,-1.8012,-1.8025,-1.8051,-1.8086,-1.8113,-1.8143,-1.8154,-1.8177,-1.8186,-1.8221,-1.8209,-1.8257,-1.8238,-1.8255,-1.8267,-1.8269,-1.8273,-1.8259,-1.8284,-1.8329,-1.8334,-1.8277,-1.8277,-1.8276,0,-1.7908,-1.7963,-1.8003,-1.8019,-1.8061,-1.8079,-1.8097,-1.8127,-1.8148,-1.8178,-1.8191,-1.8224,-1.8242,-1.8268,-1.8285,-1.8275,-1.8331,-1.8321,-1.8341,-1.834,-1.8352,-1.8351,-1.84,-1.8363,-1.8363,-1.8363,-1.8363,0,-1.7947,-1.798,-1.8011,-1.8035,-1.8072,-1.8092,-1.8127,-1.8146,-1.8172,-1.82,-1.821,-1.8236,-1.8258,-1.8286,-1.83,-1.8338,-1.8346,-1.8355,-1.8358,-1.8354,-1.8353,-1.8365,-1.8363,-1.8365,-1.8364,-1.8364,-1.8364,0,-1.7972,-1.7994,-1.8038,-1.8075,-1.8085,-1.811,-1.8142,-1.8165,-1.8183,-1.8218,-1.8227,-1.8254,-1.8288,-1.8309,-1.8351,-1.8361,-1.8402,-1.8404,-1.8392,-1.8393,-1.8412,-1.841,-1.847,-1.8479,-1.8437,-1.8437,-1.8438,0,-1.7995,-1.8021,-1.8061,-1.808,-1.8099,-1.8131,-1.8152,-1.8172,-1.8194,-1.8231,-1.825,-1.8285,-1.8314,-1.8368,-1.8391,-1.8424,-1.8427,-1.8446,-1.8432,-1.8427,-1.8427,-1.8425,-1.8428,-1.8448,-1.8448,-1.8449,-1.8449,0,-1.8034,-1.8044,-1.8075,-1.811,-1.8135,-1.8164,-1.8192,-1.8207,-1.8232,-1.8256,-1.8291,-1.8314,-1.8358,-1.8392,-1.8427,-1.8445,-1.8451,-1.8453,-1.846,-1.8455,-1.8447,-1.8452,-1.8398,-1.8452,-1.8451,-1.8451,-1.8451,-1.8451,-1.8058,-1.8082,-1.8114,-1.8148,-1.8171,-1.8198,-1.8222,-1.8243,-1.8273,-1.8311,-1.8321,-1.8358,-1.8388,-1.8436,-1.8455,-1.8484,-1.8481,-1.849,-1.8492,-1.8494,-1.8495,-1.8443,-1.849,-1.849,-1.849,-1.849,-1.849,0,-1.8097,-1.8119,-1.815,-1.819,-1.8217,-1.8221,-1.8252,-1.8274,-1.8307,-1.8335,-1.8364,-1.8405,-1.8438,-1.8464,-1.8499,-1.8517,-1.852,-1.8525,-1.8524,-1.8528,-1.8496,-1.8487,-1.8522,-1.8522,-1.8522,-1.8522,-1.8522,-1.8522,-1.8121,-1.8161,-1.8175,-1.8226,-1.8247,-1.8284,-1.8302,-1.8326,-1.8348,-1.8394,-1.8422,-1.844,-1.8467,-1.8503,-1.8534,-1.8541,-1.8553,-1.8557,-1.8564,-1.8533,-1.853,-1.8527,-1.8518,-1.856,-1.856,-1.8594,-1.8594,-1.8595]}]]